This is the latest recevied weather packets stored in our database for station/object WC4PEM-9. If no packets are shown the sender has not sent any weather packets the latest 10 day(s).
| Time | Temp. | Humidity | Pressure | Rain* | Wind** | Luminosity | Snow |
|---|---|---|---|---|---|---|---|
| 1787437650 | 28.33° C | 73% | 1014.2 hPa | 0 mm | - | - | - |
| 1787437350 | 28.89° C | 71% | 1014.4 hPa | 0 mm | - | - | - |
| 1787437176 | 28.89° C | 71% | 1014.6 hPa | 0 mm | - | - | - |
| 1787437050 | 28.89° C | 71% | 1014.6 hPa | 0 mm | - | - | - |
| 1787436899 | 28.89° C | 71% | 1014.7 hPa | 0 mm | - | - | - |
| 1787436750 | 28.89° C | 71% | 1014.7 hPa | 0 mm | - | - | - |
| 1787436450 | 29.44° C | 71% | 1014.8 hPa | 0 mm | - | - | - |
| 1787436150 | 29.44° C | 71% | 1014.8 hPa | 0 mm | - | - | - |
| 1787435850 | 29.44° C | 72% | 1014.7 hPa | 0 mm | - | - | - |
| 1787435550 | 29.44° C | 70% | 1014.9 hPa | 0 mm | - | - | - |
| 1787435250 | 29.44° C | 70% | 1014.7 hPa | 0 mm | - | - | - |
| 1787435054 | 29.44° C | 68% | 1014.7 hPa | 0 mm | - | - | - |
| 1787434950 | 29.44° C | 68% | 1014.7 hPa | 0 mm | - | - | - |
| 1787434650 | 30° C | 66% | 1014.7 hPa | 0 mm | - | - | - |
| 1787434350 | 31.67° C | 65% | 1014.8 hPa | 0 mm | - | - | - |
| 1787434050 | 32.78° C | 65% | 1014.8 hPa | 0 mm | - | - | - |
| 1787433750 | 32.78° C | 58% | 1014.5 hPa | 0 mm | - | - | - |
| 1787433450 | 32.78° C | 58% | 1014.4 hPa | 0 mm | - | - | - |
| 1787433150 | 33.33° C | 57% | 1014.3 hPa | 0 mm | - | - | - |
| 1787432850 | 33.89° C | 57% | 1014.4 hPa | 0 mm | - | - | - |
| 1787432647 | 33.89° C | 63% | 1014.1 hPa | 0 mm | - | - | - |
| 1787432550 | 33.89° C | 63% | 1014.1 hPa | 0 mm | - | - | - |
| 1787432250 | 33.33° C | 63% | 1013.9 hPa | 0 mm | - | - | - |
| 1787432002 | 33.33° C | 63% | 1013.8 hPa | 0 mm | - | - | - |
| 1787431950 | 33.33° C | 63% | 1013.8 hPa | 0 mm | - | - | - |
* Rain latest hour (hover to see other rain measurements)
** Current wind speed in m/s (hover to see current wind gust speed)